Tracking 29892 objects as of 21-Nov-2024
HD Live streaming from Space Station
objects crossing your sky now

LANDSAT 9

Track LANDSAT 9 now!
10-day predictions


NORAD ID: 49260
Int'l Code: 2021-088A
Perigee: 708.8 km
Apogee: 710.6 km
Inclination: 98.2 °
Period: 98.8 minutes
Semi major axis: 7080 km
RCS: Unknown
Launch date: September 27, 2021
Source: United States (US)
Launch site: AIR FORCE WESTERN TEST RANGE (AFWTR)
Your satellite tracking list
Your tracking list is empty




NASA's NSSDC Master Catalog

Two Line Element Set (TLE):
1 49260U 21088A   24325.11984544  .00000958  00000-0  22270-3 0  9990
2 49260  98.2161  32.7271 0001268  83.7575 276.3768 14.57092529167405
Source of the keplerian elements: AFSPC